Regional Weather Roundup
Issued by NWS Kansas City/Pleasant Hill, MO

Home | Current Version | Previous Version | Graphics & Text | Print | Product List | Glossary Off
Versions: 1 2 3 4 5 6 7 8 9 10 11 12 13 14 15 16 17 18 19 20 21 22 23 24 25 26 27 28 29 30 31 32 33 34 35 36 37 38 39 40 41 42 43 44 45 46 47 48 49 50

000
ASUS43 KEAX 112010
RWREAX

WEATHER ROUNDUP FOR EASTERN KANSAS AND NORTHWEST MISSOURI
NATIONAL WEATHER SERVICE KANSAS CITY/PLEASANT HILL MO
200 PM CST THU FEB 11 2016

KSZ040-057-103>105-MOZ028-029-037-043-112100-
...KANSAS CITY METROPOLITAN AREA...

CITY           SKY/WX    TMP DP  RH WIND       PRES   REMARKS
K.C. INTL      CLOUDY    34  21  59 E7        30.23F WCI  28
K.C. DOWNTOWN  MOSUNNY   36  20  52 MISG      30.24F
LEES SUMMIT    SUNNY     35  20  54 E7        30.23F WCI  29
OLATHE - IXD   SUNNY     37  21  52 E8        30.23F WCI  31
OLATHE - OJC   SUNNY     36  20  52 E6        30.22F WCI  31
LAWRENCE       MOSUNNY   37  21  52 E6        30.24F WCI  32

$$

MOZ001>008-011>017-020>025-030>033-038>040-044>046-053-054-112100-
...NORTHERN AND CENTRAL MISSOURI...

CITY           SKY/WX    TMP DP  RH WIND       PRES   REMARKS
ST. JOSEPH     CLOUDY    31  18  58 CALM      30.25F
MOSBY          CLEAR     34  19  55 CALM      30.25F
WARRENSBURG    SUNNY     36  21  55 N3        30.25S
WHITEMAN AFB   PTSUNNY   37  20  49 VRB1      30.24S
CLINTON          N/A     39  23  52 E5        30.24F
SEDALIA        SUNNY     38  18  44 E7        30.25F WCI  33
WARSAW         NOT AVBL
CHILLICOTHE      N/A     31  14  49 VRB5      30.28F WCI  26
KIRKSVILLE     MOSUNNY   23   6  48 E6        30.29F WCI  16

$$

MOZ041-047>049-056>058-063>065-088>090-097-112100-
...EASTERN AND SOUTHERN MISSOURI...

CITY           SKY/WX    TMP DP  RH WIND       PRES   REMARKS
ST. LOUIS INTL PTSUNNY   31  13  47 NE8       30.31R WCI  23
SPIRIT OF STL  SUNNY     30  12  47 N6        30.29S WCI  24
COLUMBIA       SUNNY     33  19  56 VRB3      30.25F
JEFFERSON CITY SUNNY     34  19  54 S5        30.26F WCI  30
ROLLA          SUNNY     35  20  54 CALM      30.21S
OSAGE BEACH    SUNNY     39  19  45 E5        30.23S
SPRINGFIELD    SUNNY     46  17  31 SE5       30.15F
BRANSON        SUNNY     46  18  31 SE7       30.16F
JOPLIN         SUNNY     46  22  38 NE7       30.18F
WEST PLAINS    SUNNY     44  17  33 E6        30.17F

$$

IAZ060-094-KSZ022-034>040-054-083-096-NEZ052-066-093-112100-
...KANSAS...SOUTHEAST NEBRASKA AND IOWA...

CITY           SKY/WX    TMP DP  RH WIND       PRES   REMARKS
TOPEKA         CLOUDY    37  21  52 E6        30.23F WCI  32
MANHATTAN      PTSUNNY   35  23  61 E3        30.20F
EMPORIA        MOSUNNY   41  23  48 SE9       30.20F
CHANUTE        MOSUNNY   45  23  42 E5        30.20F
WICHITA        PTSUNNY   44  24  45 CALM      30.18F
OMAHA          LGT SNOW  22  15  75 SE8       30.21F WCI  12
LINCOLN        CLOUDY    26  21  81 S9        30.21F WCI  17
FALLS CITY     CLOUDY    33  20  58 E8        30.22F WCI  26
LAMONI         CLOUDY    26   6  42 VRB5      30.24F WCI  20
DES MOINES     CLOUDY    20   1  43 S6        30.27F WCI  12

$$




USA.gov is the U.S. government's official web portal to all federal, state and local government web resources and services.